FW5376 Weather Reports


Display with metric or nautical units.
time (UTC)temp
F
wind
direction
speed
MPH
gust
MPH
rain 1hr
in
rain 24hr
in
rain mn
in
humidity
%
barometer
mb
20240523125521 48 0.0 2.0 0.00 0.00 0.00 68 1020.0
20240523124521 48 0.0 1.0 0.00 0.00 0.00 68 1020.1
20240523123541 48 0.0 2.0 0.00 0.00 0.00 68 1020.0
20240523122521 48 0.0 3.0 0.00 0.00 0.00 68 1019.8
20240523121521 48 0.0 1.0 0.00 0.00 0.00 68 1019.7
20240523120521 48 0.0 2.0 0.00 0.01 0.00 68 1019.8
20240523115521 48 0.0 2.0 0.00 0.01 0.00 68 1019.8
20240523114541 48 0.0 2.0 0.00 0.01 0.00 68 1019.8
20240523113521 48 180 1.0 2.0 0.00 0.01 0.00 68 1020.0
20240523112541 48 180 1.0 6.0 0.00 0.03 0.00 68 1019.9
20240523111521 48 0.0 2.0 0.00 0.03 0.00 68 1019.9
20240523110522 48 0.0 2.0 0.00 0.03 0.00 68 1019.9
20240523105521 48 0.0 1.0 0.00 0.03 0.00 68 1019.9
20240523104541 49 0.0 2.0 0.00 0.03 0.00 68 1019.9
20240523103521 49 180 1.0 6.0 0.00 0.03 0.00 68 1019.9
20240523102521 49 0.0 2.0 0.00 0.03 0.00 68 1019.8
20240523101602 49 180 1.0 4.0 0.00 0.03 0.00 67 1019.7
20240523100521 49 0.0 2.0 0.00 0.03 0.00 67 1019.8
20240523095521 49 180 1.0 4.0 0.00 0.03 0.00 67 1019.7
20240523094521 50 203 1.0 3.0 0.00 0.03 0.00 67 1019.7
20240523093521 50 180 1.0 6.0 0.00 0.03 0.00 67 1019.7
20240523092521 49 0.0 1.0 0.00 0.03 0.00 68 1019.7
20240523091521 49 0.0 2.0 0.00 0.03 0.00 68 1019.6
20240523090541 50 180 1.0 5.0 0.00 0.03 0.00 67 1019.4
20240523085521 50 203 1.0 3.0 0.00 0.03 0.00 67 1019.4
20240523084521 50 0.0 2.0 0.00 0.03 0.00 66 1019.2
20240523083521 49 0.0 1.0 0.00 0.03 0.00 66 1019.1
20240523082520 50 0.0 2.0 0.00 0.03 0.00 64 1019.1
20240523081521 50 0.0 1.0 0.00 0.03 0.00 64 1019.2
20240523080521 50 0.0 1.0 0.00 0.03 0.00 63 1019.2
20240523075521 51 203 1.0 4.0 0.00 0.03 0.00 63 1018.9
20240523074521 51 0.0 1.0 0.00 0.03 0.00 63 1018.9
20240523073912 51 0.0 2.0 0.00 0.03 0.00 64 1018.9
20240523073023 51 0.0 3.0 0.00 0.03 0.00 63 1018.7
20240523072020 52 0.0 4.0 0.00 0.03 0.00 62 1018.6
20240523071021 52 180 1.0 8.0 0.00 0.03 0.00 61 1018.5
20240523070020 52 0.0 2.0 0.00 0.03 0.03 61 1018.5
20240523065020 53 203 1.0 3.0 0.00 0.03 0.03 60 1018.3
20240523064020 53 180 1.0 4.0 0.00 0.03 0.03 62 1018.3
20240523063020 53 248 1.0 3.0 0.00 0.03 0.03 62 1018.3
20240523062020 53 0.0 1.0 0.00 0.03 0.03 63 1018.4
20240523061022 53 0.0 0.0 0.00 0.03 0.03 62 1018.3
20240523060022 53 0.0 1.0 0.00 0.03 0.03 62 1018.5
20240523055022 53 0.0 1.0 0.00 0.03 0.03 62 1018.4
20240523054022 54 0.0 1.0 0.00 0.03 0.03 61 1018.4
20240523053042 54 0.0 1.0 0.00 0.03 0.03 61 1018.4
20240523052022 54 0.0 0.0 0.00 0.03 0.03 61 1018.4
20240523051022 54 0.0 2.0 0.00 0.03 0.03 60 1018.3
20240523050022 54 0.0 0.0 0.00 0.03 0.03 59 1018.2
20240523045021 55 0.0 0.0 0.00 0.03 0.03 59 1018.1
20240523044022 55 0.0 0.0 0.00 0.03 0.03 59 1017.9
20240523043021 55 0.0 1.0 0.00 0.03 0.03 59 1017.8
20240523042022 54 0.0 0.0 0.00 0.03 0.03 60 1017.8
20240523041022 55 0.0 0.0 0.00 0.03 0.03 59 1017.7
20240523040022 55 0.0 1.0 0.00 0.03 0.03 58 1017.6
20240523035021 54 0.0 0.0 0.00 0.03 0.03 58 1017.4
20240523034022 55 0.0 0.0 0.00 0.03 0.03 55 1017.3
20240523033021 56 0.0 0.0 0.00 0.03 0.03 52 1017.3
20240523032042 56 0.0 0.0 0.00 0.03 0.03 51 1017.2
20240523031022 57 0.0 0.0 0.00 0.03 0.03 49 1017.0
20240523030022 57 0.0 0.0 0.00 0.03 0.03 48 1017.1
20240523025021 57 0.0 0.0 0.00 0.03 0.03 48 1017.0
20240523024021 58 0.0 0.0 0.00 0.03 0.03 48 1017.0
20240523023021 58 0.0 2.0 0.00 0.03 0.03 47 1016.8
20240523022021 58 315 1.0 2.0 0.00 0.03 0.03 46 1016.8
20240523021021 58 315 1.0 4.0 0.00 0.03 0.03 47 1016.8
20240523020022 58 315 1.0 2.0 0.00 0.03 0.03 47 1016.6
20240523015102 58 315 2.0 4.0 0.00 0.03 0.03 47 1016.5
20240523014021 58 315 2.0 4.0 0.00 0.03 0.03 46 1016.6
20240523013022 58 0.0 2.0 0.00 0.03 0.03 47 1016.3
20240523012022 58 338 1.0 3.0 0.00 0.04 0.03 46 1016.2
20240523011041 58 338 2.0 3.0 0.00 0.05 0.03 46 1016.0
20240523010021 58 45 3.0 9.0 0.00 0.06 0.03 46 1016.1
20240523005021 58 0 3.0 8.0 0.00 0.07 0.03 47 1016.0
20240523004041 58 315 4.0 9.0 0.00 0.09 0.03 46 1016.0
20240523003021 58 338 2.0 4.0 0.00 0.11 0.03 46 1015.9
20240523002021 58 68 2.0 4.0 0.00 0.12 0.03 47 1015.9
20240523001021 58 45 3.0 6.0 0.00 0.14 0.03 47 1015.9
20240523000021 58 315 4.0 9.0 0.00 0.16 0.03 47 1015.8
20240522235021 58 0 2.0 5.0 0.00 0.18 0.03 47 1015.8
20240522234021 58 0 2.0 5.0 0.00 0.20 0.03 48 1015.6
20240522233021 58 23 2.0 4.0 0.00 0.22 0.03 49 1015.7
20240522232021 57 23 1.0 4.0 0.00 0.23 0.03 51 1015.6
20240522231021 58 225 2.0 7.0 0.00 0.24 0.03 50 1015.6
20240522230041 57 23 3.0 6.0 0.00 0.25 0.03 52 1015.5
20240522225021 57 338 4.0 9.0 0.00 0.27 0.03 53 1015.6
20240522224021 57 23 2.0 5.0 0.00 0.28 0.03 54 1015.6
20240522223021 57 270 2.0 9.0 0.00 0.30 0.03 53 1015.3
20240522222021 58 45 3.0 8.0 0.00 0.31 0.03 54 1015.1
20240522221021 58 23 4.0 9.0 0.00 0.33 0.03 55 1015.3
20240522220021 57 23 4.0 7.0 0.00 0.33 0.03 55 1015.0
20240522215021 58 248 2.0 4.0 0.00 0.33 0.03 55 1015.1
20240522214021 58 248 2.0 4.0 0.00 0.34 0.03 54 1014.9
20240522213021 56 270 2.0 9.0 0.00 0.34 0.03 56 1014.9
20240522212021 55 338 3.0 8.0 0.00 0.34 0.03 55 1014.8
20240522211041 55 338 1.0 5.0 0.00 0.34 0.03 58 1014.6
20240522210021 54 338 2.0 8.0 0.00 0.34 0.03 59 1014.5
20240522205041 54 338 2.0 10.0 0.00 0.34 0.03 58 1014.5
20240522204021 54 0 4.0 10.0 0.00 0.35 0.03 60 1014.5
20240522203021 54 338 2.0 6.0 0.00 0.35 0.03 59 1014.4
20240522202041 53 338 5.0 11.0 0.00 0.35 0.03 57 1014.3
20240522201021 53 45 3.0 8.0 0.00 0.35 0.03 59 1014.4
20240522200021 52 23 2.0 6.0 0.00 0.36 0.03 62 1014.2
20240522195020 53 0 3.0 11.0 0.00 0.37 0.03 61 1014.1
20240522194021 52 23 4.0 8.0 0.00 0.37 0.03 60 1014.0
20240522193020 52 23 3.0 7.0 0.00 0.38 0.03 62 1014.0
20240522192021 52 315 2.0 7.0 0.00 0.39 0.03 61 1013.9
20240522191020 52 23 2.0 9.0 0.00 0.39 0.03 56 1013.8
20240522190041 53 23 2.0 5.0 0.00 0.40 0.03 58 1013.5
20240522185021 52 315 2.0 10.0 0.00 0.40 0.03 59 1013.6
20240522184020 52 45 2.0 5.0 0.00 0.41 0.03 59 1013.3
20240522183020 52 315 3.0 9.0 0.00 0.43 0.03 61 1013.3
20240522182020 51 338 3.0 9.0 0.00 0.43 0.03 61 1013.3
20240522181021 51 23 1.0 3.0 0.00 0.45 0.03 62 1013.1
20240522180021 50 315 4.0 9.0 0.00 0.45 0.03 63 1013.0
20240522175121 51 23 2.0 5.0 0.00 0.46 0.03 63 1012.9
20240522174021 52 293 1.0 5.0 0.00 0.47 0.03 62 1012.6
20240522173041 51 270 1.0 4.0 0.00 0.47 0.03 62 1012.6
20240522172020 51 0.0 4.0 0.00 0.48 0.03 64 1012.5
20240522171020 51 338 2.0 6.0 0.00 0.49 0.03 64 1012.4
20240522170020 51 0.0 0.0 0.00 0.50 0.03 66 1012.4
20240522165041 50 0.0 2.0 0.00 0.51 0.03 63 1012.5
20240522164020 50 0.0 2.0 0.00 0.51 0.03 65 1012.3
20240522163020 50 0.0 1.0 0.00 0.51 0.03 66 1012.4
20240522162020 49 203 1.0 3.0 0.00 0.52 0.03 65 1012.3
20240522161040 49 0.0 3.0 0.00 0.52 0.03 66 1012.3
20240522160020 49 0.0 2.0 0.00 0.53 0.03 67 1012.2
20240522155020 48 0.0 1.0 0.00 0.53 0.03 67 1012.0
20240522154020 48 0.0 3.0 0.00 0.53 0.03 67 1011.8
20240522153020 47 0.0 2.0 0.00 0.53 0.03 68 1011.7
20240522152020 47 0.0 2.0 0.00 0.54 0.03 69 1011.6
20240522151022 47 0.0 1.0 0.00 0.54 0.03 70 1011.4
20240522150022 47 180 1.0 4.0 0.00 0.54 0.03 69 1011.4
20240522145022 47 203 1.0 3.0 0.00 0.55 0.03 69 1011.3
20240522144020 47 0.0 3.0 0.00 0.55 0.03 69 1011.3
20240522143022 46 180 1.0 4.0 0.00 0.55 0.03 69 1011.1
20240522142022 46 0.0 0.0 0.00 0.55 0.03 71 1011.1
20240522141022 46 0.0 2.0 0.00 0.55 0.03 71 1011.0
20240522140022 46 0.0 4.0 0.00 0.55 0.03 71 1010.8
20240522135022 46 0.0 2.0 0.00 0.55 0.03 70 1010.7
20240522134022 46 0.0 1.0 0.00 0.55 0.03 71 1010.4
20240522133022 46 0.0 3.0 0.00 0.55 0.03 71 1010.3
20240522132022 46 0.0 2.0 0.00 0.55 0.03 71 1010.2
20240522131022 46 203 1.0 7.0 0.01 0.55 0.03 71 1010.2